Location: Unspecified
(33.2407°S, 0.0000°E)
Time: 23:10:20
(UTC+00:00)

Hubble Space Telescope - Pass Details

Date: 24 May 2019
Orbit: 536 x 540 km, 28.5° (Epoch: 25 June)

Event Time Altitude Azimuth Distance (km) Brightness Sun altitude
Exits shadow 04:43:24 30° 18° (NNE) 986 2.3 -26.1°
Drops below altitude 10° 04:46:13 10° 54° (NE) 1,795 4.2 -25.5°
Sets 04:48:37 0° 63° (ENE) 2,685 5.5 -25.0°
